Location: Newark
(33.2833°N, 8.3333°W)
Time: 16:57:10
(UTC+00:00)

Envisat - Pass Details

Date: 24 September 2019
Orbit: 764 x 766 km, 98.1° (Epoch: 15 October)

Event Time Altitude Azimuth Distance (km) Brightness Sun altitude
Rises 20:12:01 0° 216° (SW) 3,218 6.5 -22.4°
Reaches altitude 10° 20:16:05 10° 249° (WSW) 2,298 6.2 -23.2°
Maximum altitude 20:17:44 12° 268° (W) 2,197 6.3 -23.5°
Drops below altitude 10° 20:19:24 10° 288° (WNW) 2,303 6.6 -23.9°
Sets 20:23:31 0° 321° (NW) 3,234 7.1 -24.7°
